[[{"header":{"parameterUnit":"m.s-1","parameterCategory":1,"la1":30.2991,"la2":30.254,"lo1":-89.0895,"lo2":-89.0444,"dy":0.0017,"dx":0.0017,"nx":28,"ny":28,"refTime":"2023-07-21T03:00:00:Z","depth":0,"parameterNumber":2,"parameterNumberName":"U-component_of_WINDS"},"data":[0,0,0,0,0,0,0,0,0,0,0,0,0,0,0,0,0,0,0,0,0,0,0,0,0,0,0,0,0,0,0,0,0,0,0,0,0,0,0,0,0,0,0,0,0,0,0,0,0,0,0,0,0,0,0,0,0,0,4.3038,4.3039,0,4.3135,4.3136,4.3137,4.3065,4.3062,4.3059,4.3056,4.3154,4.3159,4.3165,0,0,0,0,0,0,0,0,0,0,0,0,0,4.2786,4.2791,4.3038,4.3039,4.304,4.3135,4.3136,4.3138,4.3066,4.3062,4.3058,4.3054,4.3152,4.3158,4.3165,0,0,0,0,0,0,0,0,0,0,0,0,0,4.2891,4.2793,4.3038,4.3016,4.3015,4.3135,4.3136,4.3138,4.3066,4.3062,4.3057,4.3052,4.315,4.3158,4.3166,4.3312,0,0,4.3192,4.3195,0,0,0,0,0,0,0,0,4.2885,4.29,4.3018,4.3017,4.3017,4.3083,4.3083,4.3196,4.3068,4.3047,4.3056,4.305,4.3134,4.3143,4.3172,4.3317,4.3321,4.3192,4.3197,4.3201,4.3203,0,0,0,0,0,0,0,4.2878,4.2895,4.3076,4.302,4.3019,4.3,4.3009,4.3105,4.3116,4.3048,4.3043,4.3056,4.3133,4.3164,4.3174,4.3323,4.3192,4.3199,4.3205,4.3208,4.3588,4.3593,0,0,0,0,0,0,4.2873,4.289,4.3073,4.3079,4.2938,4.3008,4.3019,4.3067,4.3114,4.3117,4.306,4.3052,4.3152,4.3164,4.3177,4.3348,4.3201,4.3209,4.3213,4.3583,4.359,4.3595,0,0,0,0,0,0,4.2868,4.289,4.3069,4.2983,4.3005,4.3018,4.3072,4.3071,4.3102,4.3123,4.3125,4.309,4.3149,4.3165,4.3278,4.3351,4.3212,4.322,4.3577,4.3585,4.3592,4.3694,0,0,0,0,0,0,4.2861,4.2889,4.2945,4.2985,4.3009,4.3171,4.3076,4.3076,4.3117,4.3108,4.3152,4.3155,4.3146,4.3266,4.3287,4.336,4.3227,4.3571,4.3581,4.359,4.3684,4.3704,4.3721,0,0,0,0,0,4.2852,4.2971,4.2949,4.2971,4.3081,4.3175,4.3189,4.3177,4.3123,4.3179,4.3192,4.3153,4.334,4.3279,4.3301,4.3377,4.3566,4.3578,4.3589,4.3676,4.37,4.3721,0,0,0,0,0,0,4.2939,4.2975,4.2951,4.3087,4.3128,4.3163,4.3233,4.3204,4.3262,4.3251,4.3234,4.3244,4.3362,4.3382,4.3313,4.352,4.3444,4.3461,4.3502,4.3526,4.3544,4.3536,4.3233,0,0,0,0,0,4.2974,4.3048,4.3076,4.3192,4.3214,4.3221,4.3261,4.3249,4.3291,4.3308,4.3329,4.3371,4.3439,4.3484,4.3548,4.3687,4.3694,4.3751,4.3769,4.3784,4.3798,4.3869,4.3894,4.3633,4.3633,4.3633,0,0,4.3047,4.3076,4.3124,4.321,4.3241,4.3317,4.3236,4.332,4.3375,4.3321,4.3428,4.3445,4.3491,4.3617,4.3673,4.3636,4.3872,4.3799,4.3811,4.3816,4.3884,4.3908,4.393,4.3641,4.3639,4.3638,0,0,4.3217,4.3248,4.3347,4.3379,4.3426,4.3429,4.3453,4.3492,4.3501,4.3609,4.3568,4.3633,4.3751,4.3784,4.3816,4.3997,4.3962,4.4019,4.4114,4.4184,4.4205,4.4223,4.4284,4.4306,4.4033,4.4033,4.4033,0,4.3301,4.3414,4.3401,4.3487,4.3525,4.3479,4.3578,4.361,4.3676,4.3702,4.366,4.3804,4.3832,4.3963,4.4007,4.4036,4.406,4.4012,4.4203,4.4221,4.4238,4.4295,4.4319,4.4039,4.4038,4.4038,4.4037,0,4.3514,4.3593,4.3667,4.373,4.3777,4.3869,4.3868,4.3917,4.39,4.3907,4.4015,4.4047,4.4114,4.4145,4.413,4.4274,4.4248,4.4206,4.4129,4.4269,4.4323,4.4345,4.4048,4.4046,4.4044,4.4042,0,0,4.3741,4.3795,4.3823,4.3849,4.3898,4.3958,4.4047,4.4113,4.4153,4.42,4.4272,4.4372,4.4332,4.4368,4.4356,4.4418,4.4555,4.4367,4.4367,4.4398,4.471,4.474,4.4766,4.4533,4.4537,4.454,4.4705,0,4.3911,4.4066,4.4056,4.4202,4.4272,4.4229,4.4306,4.4343,4.4352,4.4412,4.4421,4.449,4.4434,4.4455,4.4514,4.4526,4.4617,4.4514,4.4597,4.46,4.4584,4.4795,4.4828,4.4982,4.4727,4.473,4.4733,0,4.4131,4.4184,4.4336,4.4371,4.44,4.447,4.4528,4.4587,4.4627,4.4629,4.4669,4.4646,4.4733,4.4656,4.4775,4.4705,4.4738,4.4749,4.4755,4.4759,4.4673,4.4802,4.5031,4.5053,4.4767,4.4764,4.4762,0,4.4277,4.4387,4.4491,4.4516,4.4561,4.461,4.463,4.4666,4.4705,4.4756,4.478,4.4841,4.4874,4.492,4.4913,4.4859,4.5033,4.4956,4.5034,4.5034,4.507,4.5068,4.5304,4.5098,4.5097,4.5097,4.5096,0,4.4466,4.456,4.4557,4.4621,4.4724,4.4711,4.4813,4.4828,4.4859,4.4924,4.4891,4.4952,4.4941,4.5001,4.4996,4.5093,4.5109,4.5111,4.5107,4.5112,4.5111,4.5131,4.5119,4.5103,4.5102,4.5101,4.5099,0,4.4646,4.4648,4.4758,4.4791,4.4801,4.4875,4.4902,4.4961,4.4967,4.5048,4.5067,4.5075,4.5144,4.5143,4.5222,4.5218,4.5336,4.5322,4.5322,4.5318,4.5394,4.5386,4.565,4.5682,4.5458,4.546,4.5462,0,4.4765,4.4836,4.4875,4.4916,4.494,4.5006,4.5046,4.5035,4.5077,4.5127,4.518,4.5246,4.5298,4.541,4.5422,4.5481,4.5467,4.5555,4.5475,4.5476,4.5463,4.5458,4.5463,4.557,4.5572,4.5574,4.5576,0,4.4974,4.4971,4.503,4.5089,4.5137,4.5183,4.5225,4.526,4.5253,4.5302,4.5372,4.5413,4.5492,4.5557,4.5614,4.5633,4.5602,4.5601,4.5622,4.5625,4.562,4.562,4.5361,4.5595,4.5593,4.5591,4.559,4.559,4.5125,4.5185,4.5221,4.5287,4.5317,4.5356,4.5412,4.5425,4.5483,4.5547,4.5537,4.5615,4.565,4.5723,4.5747,4.5806,4.5775,4.5805,4.5812,4.5819,4.5826,4.5614,4.5817,4.5816,4.5816,4.5815,4.5815,0,4.533,4.5351,4.5411,4.547,4.5521,4.549,4.5534,4.5578,4.5646,4.5683,4.5734,4.5813,4.5875,4.5892,4.5951,4.5995,4.5982,4.601,4.6005,4.6009,4.5853,4.5827,4.6019,4.6019,4.6019,4.6019,4.6019,4.6019,4.5442,4.554,4.5541,4.5653,4.5673,4.5749,4.5776,4.5811,4.5839,4.5929,4.598,4.5991,4.6018,4.6079,4.6133,4.6136,4.6158,4.6191,4.6188,4.6041,4.6021,4.6001,4.5977,4.6197,4.6197,4.6339,4.6341,4.6342]},{"header":{"parameterUnit":"m.s-1","parameterCategory":1,"la1":30.2991,"la2":30.254,"lo1":-89.0895,"lo2":-89.0444,"dy":0.0017,"dx":0.0017,"nx":28,"ny":28,"refTime":"2023-07-21T03:00:00:Z","depth":0,"parameterNumber":3,"parameterNumberName":"V-component_of_WINDS"},"data":[0,0,0,0,0,0,0,0,0,0,0,0,0,0,0,0,0,0,0,0,0,0,0,0,0,0,0,0,0,0,0,0,0,0,0,0,0,0,0,0,0,0,0,0,0,0,0,0,0,0,0,0,0,0,0,0,0,0,2.308,2.3081,0,2.3155,2.3156,2.3156,2.3134,2.3133,2.3131,2.313,2.3208,2.3212,2.3215,0,0,0,0,0,0,0,0,0,0,0,0,0,2.2919,2.2922,2.308,2.3081,2.3082,2.3155,2.3156,2.3157,2.3134,2.3133,2.3131,2.3129,2.3207,2.3211,2.3215,0,0,0,0,0,0,0,0,0,0,0,0,0,2.2991,2.2923,2.308,2.308,2.308,2.3154,2.3156,2.3157,2.3135,2.3133,2.313,2.3128,2.3206,2.3211,2.3216,2.3296,0,0,2.3232,2.3235,0,0,0,0,0,0,0,0,2.2987,2.2997,2.3079,2.308,2.3081,2.3133,2.3128,2.3204,2.3135,2.3114,2.313,2.3127,2.3185,2.3192,2.3211,2.3299,2.3303,2.3233,2.3236,2.3238,2.324,0,0,0,0,0,0,0,2.2982,2.2994,2.311,2.308,2.3081,2.3076,2.3084,2.3142,2.3162,2.3116,2.3114,2.3123,2.3185,2.3206,2.3213,2.3304,2.3233,2.3237,2.3241,2.3243,2.346,2.3463,0,0,0,0,0,0,2.2976,2.299,2.3107,2.3112,2.3027,2.3081,2.3089,2.3118,2.3161,2.3165,2.3125,2.3122,2.3198,2.3207,2.3216,2.3311,2.3238,2.3243,2.3246,2.3458,2.3461,2.3464,0,0,0,0,0,0,2.2973,2.2987,2.3104,2.305,2.3065,2.3086,2.3119,2.3121,2.3142,2.3168,2.3172,2.3143,2.3197,2.3208,2.3276,2.3313,2.3246,2.325,2.3455,2.3459,2.3462,2.3503,0,0,0,0,0,0,2.2968,2.2986,2.3016,2.3051,2.3068,2.3163,2.3121,2.3124,2.3151,2.3147,2.3186,2.319,2.3196,2.3268,2.3281,2.332,2.3255,2.3451,2.3456,2.3461,2.3498,2.3508,2.3516,0,0,0,0,0,2.2963,2.3025,2.3018,2.3032,2.3106,2.3165,2.3175,2.3179,2.3154,2.3185,2.3202,2.3189,2.3307,2.3275,2.3289,2.333,2.3449,2.3455,2.3461,2.3495,2.3506,2.3516,0,0,0,0,0,0,2.2996,2.303,2.3022,2.3098,2.3129,2.3161,2.32,2.3192,2.3231,2.3226,2.323,2.3239,2.3308,2.3326,2.329,2.3409,2.3374,2.3383,2.3395,2.3406,2.3415,2.3409,2.3259,0,0,0,0,0,2.3011,2.3056,2.3084,2.3148,2.3164,2.3179,2.3205,2.3206,2.3238,2.3251,2.3273,2.3305,2.335,2.3379,2.3421,2.3501,2.3508,2.3536,2.3545,2.3552,2.356,2.3602,2.3614,2.3483,2.3483,2.3482,0,0,2.3045,2.3069,2.3098,2.3155,2.3179,2.3225,2.3191,2.3241,2.3276,2.3259,2.3324,2.3341,2.3377,2.3451,2.3484,2.3468,2.3597,2.3559,2.3564,2.3569,2.3609,2.3622,2.3633,2.3487,2.3486,2.3485,0,0,2.313,2.3153,2.3209,2.3233,2.3269,2.3279,2.3292,2.3326,2.3336,2.3401,2.3389,2.343,2.3507,2.3533,2.3556,2.3649,2.3639,2.3663,2.3709,2.375,2.376,2.377,2.3802,2.3814,2.367,2.367,2.367,0,2.3168,2.3236,2.3239,2.329,2.3315,2.3302,2.3358,2.3382,2.343,2.3448,2.3428,2.3523,2.3547,2.3626,2.3648,2.3668,2.3683,2.3659,2.3758,2.3768,2.3776,2.3808,2.382,2.3673,2.3673,2.3672,2.3672,0,2.328,2.3328,2.3369,2.3415,2.3445,2.3498,2.3509,2.3539,2.3537,2.3549,2.3614,2.3642,2.3689,2.3708,2.3707,2.3786,2.3775,2.3757,2.3722,2.3792,2.3821,2.3833,2.3677,2.3676,2.3675,2.3674,0,0,2.339,2.3435,2.345,2.347,2.3508,2.3545,2.3597,2.3643,2.3668,2.3702,2.3746,2.381,2.3793,2.382,2.3821,2.3857,2.3929,2.3835,2.3836,2.3851,2.4018,2.4031,2.4045,2.3922,2.3924,2.3926,2.4015,0,2.3477,2.3569,2.3572,2.3656,2.37,2.3687,2.3733,2.3761,2.3773,2.3812,2.3826,2.3871,2.3846,2.3861,2.3896,2.3913,2.3962,2.3906,2.3963,2.3965,2.3955,2.4061,2.4075,2.4158,2.4026,2.4028,2.403,0,2.3593,2.3628,2.3717,2.3747,2.3766,2.3807,2.3848,2.3885,2.3917,2.3923,2.3952,2.3947,2.4001,2.3964,2.4038,2.4,2.4023,2.4035,2.4038,2.4044,2.4002,2.4069,2.4185,2.4197,2.4048,2.4047,2.4045,0,2.3663,2.3733,2.3795,2.3812,2.385,2.3879,2.3896,2.3925,2.3952,2.3988,2.4005,2.4047,2.407,2.4103,2.411,2.4082,2.4184,2.4148,2.4191,2.4191,2.4213,2.4212,2.4334,2.4228,2.4228,2.4228,2.4228,0,2.3761,2.3815,2.3827,2.3865,2.3925,2.3928,2.3987,2.4002,2.4028,2.4069,2.406,2.4099,2.4106,2.4146,2.4152,2.4212,2.4223,2.4229,2.423,2.423,2.4229,2.4246,2.424,2.4231,2.423,2.423,2.4229,0,2.385,2.386,2.3926,2.3955,2.3964,2.4007,2.4032,2.4068,2.4079,2.413,2.4143,2.4159,2.4206,2.4216,2.4272,2.4275,2.4347,2.4342,2.4336,2.4336,2.4378,2.4374,2.4515,2.4534,2.4416,2.4417,2.4418,0,2.3912,2.3953,2.3986,2.4012,2.4031,2.4073,2.41,2.4104,2.4132,2.417,2.4202,2.4247,2.4283,2.4358,2.4376,2.4418,2.4414,2.4461,2.4421,2.4419,2.4415,2.4412,2.4416,2.4469,2.447,2.4471,2.4472,0,2.4021,2.4023,2.4061,2.4101,2.4133,2.4165,2.4195,2.4217,2.4225,2.4257,2.4304,2.4332,2.4388,2.4433,2.4475,2.4493,2.4484,2.4484,2.4496,2.4497,2.4491,2.4495,2.4357,2.4481,2.448,2.4479,2.4479,2.4479,2.4098,2.4134,2.4162,2.4205,2.4228,2.4256,2.4291,2.4305,2.4344,2.4389,2.4389,2.4441,2.447,2.4526,2.4546,2.4586,2.4572,2.4589,2.4594,2.4598,2.4602,2.4485,2.4594,2.4593,2.4593,2.4593,2.4593,0,2.4206,2.4223,2.4263,2.4305,2.4338,2.4325,2.4358,2.4387,2.4432,2.446,2.4495,2.4549,2.4592,2.4612,2.4655,2.4683,2.468,2.4694,2.4692,2.4697,2.4613,2.4598,2.4696,2.4696,2.4696,2.4696,2.4696,2.4696,2.4266,2.4326,2.4331,2.4402,2.4419,2.4468,2.4488,2.4514,2.4536,2.4596,2.4631,2.4644,2.4668,2.4713,2.4752,2.4757,2.4773,2.4789,2.4792,2.4713,2.4703,2.4693,2.4679,2.4792,2.4793,2.4873,2.4873,2.4874]}]]